Temp
-6 -7 -8 -9 -9 -10 -10 -10 -8 -10 -11 -11 -11 -11 -10 -12 -12 -12 -12 -12 -12 -11 -11 -9 -8 -6 -4 -2 3 5 6 8 8 8 8 8 9 8 8 8 8 9 8 8
-8 -7 -6 -8 -10 -9 -11 -12 -10 -10 -10 -12 -12 -12 -11 -13 -13 -12 -13 -12 -12 -12 -11 -10 -9 -8 -7 -3 0 2 4 5 7 7 8 8 9 9 8 8 8 8 8 8
-9 -8 -6 -6 -12 -11 -12 -13 -13 -12 -12 -12 -13 -12 -13 -13 -14 -13 -13 -13 -13 -12 -12 -11 -10 -9 -8 -4 -2 -0 2 3 5 6 7 8 8 8 8 8 9 9 9 7
-12 -13 -9 -10 -11 -11 -12 -13 -13 -13 -13 -13 -13 -13 -13 -14 -14 -14 -14 -14 -13 -12 -11 -11 -10 -9 -8 -4 -3 -2 -0 1 3 4 6 7 8 8 8 8 8 9 8 8
-12 -15 -14 -12 -12 -13 -12 -13 -14 -14 -14 -14 -14 -12 -12 -14 -14 -14 -14 -13 -13 -12 -12 -11 -10 -10 -8 -6 -4 -3 -2 -0 1 3 4 5 7 7 7 8 8 9 8 8
-17 -11 -11 -12 -14 -14 -14 -11 -14 -15 -14 -15 -14 -13 -12 -15 -15 -14 -13 -13 -12 -12 -11 -11 -10 -9 -8 -7 -6 -5 -3 -2 -0 1 2 4 5 5 7 6 7 7 7 7
-17 -16 -14 -15 -14 -14 -12 -13 -15 -15 -16 -16 -15 -15 -15 -15 -14 -14 -13 -13 -12 -11 -11 -11 -10 -9 -9 -7 -7 -6 -5 -3 -2 -0 1 2 3 5 5 6 6 6 6 6
-18 -18 -13 -14 -14 -15 -16 -15 -16 -15 -16 -16 -16 -16 -16 -15 -14 -14 -13 -12 -12 -12 -11 -11 -11 -10 -9 -8 -8 -7 -6 -4 -3 -2 -0 1 2 3 4 4 5 5 5 5
-16 -16 -16 -15 -15 -15 -16 -16 -16 -16 -16 -16 -16 -16 -16 -15 -14 -14 -13 -13 -12 -12 -12 -11 -11 -10 -10 -9 -8 -7 -6 -5 -4 -2 -2 -1 1 2 3 4 4 4 4 4
-13 -15 -15 -15 -15 -16 -16 -16 -16 -16 -16 -16 -16 -16 -16 -15 -14 -14 -13 -13 -13 -12 -12 -11 -11 -11 -10 -10 -9 -8 -7 -6 -5 -3 -2 -2 -1 -0 1 2 3 3 3 3
-13 -15 -15 -15 -16 -16 -16 -16 -16 -16 -16 -16 -16 -16 -16 -15 -14 -14 -13 -13 -13 -13 -12 -12 -11 -11 -10 -10 -9 -9 -8 -7 -6 -5 -3 -2 -2 -1 -0 1 1 2 2 2
-16 -17 -17 -16 -16 -17 -17 -17 -17 -17 -17 -16 -16 -16 -16 -15 -14 -14 -14 -13 -13 -13 -12 -12 -12 -11 -11 -10 -10 -9 -8 -8 -7 -6 -5 -4 -3 -2 -2 -1 -0 1 1 1
-19 -19 -17 -17 -17 -17 -17 -17 -17 -17 -17 -17 -16 -16 -16 -15 -14 -14 -14 -13 -13 -13 -13 -12 -12 -11 -11 -10 -10 -9 -9 -8 -8 -7 -6 -5 -5 -4 -3 -2 -2 -1 -0 -0
-19 -19 -18 -18 -19 -18 -18 -17 -17 -17 -17 -17 -17 -16 -16 -15 -14 -14 -14 -14 -13 -13 -13 -12 -12 -12 -11 -11 -10 -10 -9 -9 -8 -8 -7 -7 -6 -5 -5 -4 -3 -2 -2 -1
-20 -20 -20 -20 -19 -18 -18 -18 -17 -17 -17 -17 -17 -16 -16 -15 -15 -15 -14 -14 -14 -13 -13 -13 -12 -12 -12 -11 -10 -10 -9 -9 -8 -8 -8 -7 -7 -6 -6 -5 -5 -4 -3 -3
-21 -21 -20 -20 -19 -19 -18 -18 -18 -18 -17 -17 -17 -16 -16 -16 -15 -15 -15 -14 -14 -14 -14 -13 -13 -13 -12 -12 -11 -10 -9 -9 -9 -8 -9 -8 -8 -7 -6 -6 -6 -5 -5 -4
-22 -22 -21 -21 -20 -19 -19 -19 -18 -18 -18 -17 -17 -17 -16 -16 -15 -15 -14 -14 -14 -14 -14 -14 -14 -13 -13 -12 -11 -11 -10 -9 -9 -9 -9 -8 -8 -8 -7 -7 -6 -6 -6 -5
-22 -22 -22 -22 -21 -20 -19 -19 -18 -18 -18 -18 -17 -17 -17 -16 -16 -16 -15 -15 -14 -14 -14 -14 -14 -14 -12 -12 -12 -11 -10 -10 -9 -9 -9 -9 -8 -9 -8 -8 -7 -7 -7 -7
-22 -22 -22 -21 -21 -20 -20 -19 -19 -18 -18 -18 -18 -18 -17 -17 -17 -16 -16 -15 -15 -15 -14 -14 -15 -14 -12 -12 -12 -11 -10 -10 -9 -9 -9 -8 -8 -8 -8 -8 -8 -8 -7 -7
-22 -22 -22 -21 -21 -20 -20 -19 -19 -19 -19 -18 -18 -18 -17 -17 -17 -17 -16 -16 -16 -16 -16 -15 -15 -14 -13 -13 -12 -11 -11 -10 -10 -10 -9 -9 -9 -9 -9 -9 -8 -8 -8 -8
-23 -23 -23 -22 -21 -21 -20 -20 -20 -19 -19 -19 -19 -18 -18 -18 -18 -17 -17 -16 -16 -16 -16 -15 -15 -14 -14 -13 -12 -12 -11 -11 -11 -11 -11 -10 -10 -9 -9 -9 -9 -9 -9 -8
-24 -24 -23 -23 -22 -21 -21 -20 -20 -20 -19 -19 -19 -19 -18 -18 -18 -18 -18 -18 -17 -17 -16 -15 -15 -15 -14 -13 -13 -12 -12 -12 -12 -12 -11 -11 -11 -11 -10 -10 -10 -10 -10 -10
-24 -24 -24 -23 -23 -22 -21 -21 -20 -20 -20 -20 -20 -19 -19 -19 -19 -19 -18 -17 -17 -17 -16 -15 -16 -15 -14 -13 -13 -13 -13 -12 -12 -12 -12 -12 -12 -11 -11 -11 -11 -11 -11 -11
-25 -24 -24 -24 -23 -23 -22 -21 -21 -21 -20 -20 -20 -20 -19 -19 -19 -19 -19 -18 -17 -18 -16 -16 -17 -15 -14 -14 -14 -13 -13 -13 -13 -12 -12 -12 -12 -12 -12 -12 -12 -12 -11 -11
-25 -25 -25 -24 -24 -23 -23 -22 -22 -21 -21 -20 -20 -20 -20 -20 -19 -20 -19 -18 -18 -17 -17 -16 -16 -15 -14 -14 -14 -14 -13 -14 -13 -13 -13 -12 -12 -12 -12 -12 -12 -12 -12 -12
-26 -25 -25 -25 -24 -24 -24 -23 -23 -22 -21 -21 -21 -20 -20 -20 -20 -19 -19 -19 -18 -18 -17 -17 -16 -16 -15 -15 -14 -14 -14 -14 -13 -13 -13 -13 -13 -13 -13 -13 -13 -13 -13 -13
-26 -25 -25 -25 -25 -24 -24 -24 -24 -23 -22 -22 -22 -21 -21 -20 -20 -20 -19 -19 -19 -18 -18 -17 -17 -16 -16 -16 -15 -15 -14 -14 -14 -14 -14 -14 -14 -14 -14 -14 -14 -14 -14 -14
Height
1424 1428 1431 1437 1432 1430 1424 1426 1417 1431 1434 1436 1433 1429 1424 1422 1416 1412 1404 1399 1395 1390 1388 1387 1386 1382 1381 1378 1377 1384 1389 1394 1398 1404 1408 1416 1420 1426 1431 1437 1443 1448 1455 1460
1429 1425 1425 1434 1440 1437 1438 1441 1435 1432 1433 1438 1434 1431 1427 1423 1419 1413 1408 1404 1400 1396 1393 1391 1385 1382 1381 1375 1377 1384 1387 1390 1394 1399 1403 1409 1416 1422 1427 1433 1439 1444 1451 1453
1434 1425 1421 1424 1449 1447 1451 1453 1450 1446 1447 1441 1433 1427 1428 1425 1420 1416 1409 1406 1402 1400 1396 1392 1387 1385 1380 1375 1376 1379 1382 1386 1391 1395 1398 1404 1411 1417 1421 1427 1433 1437 1444 1447
1445 1445 1443 1444 1448 1449 1451 1455 1454 1451 1446 1443 1438 1433 1427 1425 1422 1416 1411 1408 1403 1401 1397 1395 1392 1389 1381 1372 1373 1378 1381 1384 1387 1390 1394 1399 1404 1410 1416 1422 1425 1431 1438 1443
1454 1468 1461 1450 1450 1452 1451 1454 1456 1452 1447 1442 1435 1430 1429 1426 1422 1419 1414 1410 1406 1401 1401 1398 1394 1388 1379 1375 1376 1379 1380 1381 1383 1386 1389 1392 1398 1402 1408 1412 1416 1423 1429 1435
1471 1455 1453 1453 1453 1452 1451 1444 1454 1453 1450 1445 1438 1432 1431 1428 1424 1419 1417 1413 1408 1407 1404 1401 1394 1386 1380 1377 1377 1379 1379 1380 1380 1382 1384 1387 1391 1397 1401 1405 1413 1417 1422 1428
1472 1472 1461 1456 1451 1449 1450 1455 1454 1453 1452 1450 1448 1446 1437 1430 1426 1422 1417 1412 1408 1404 1400 1394 1387 1383 1380 1376 1375 1377 1380 1381 1380 1381 1381 1385 1387 1391 1395 1401 1406 1409 1415 1420
1476 1479 1461 1455 1451 1457 1460 1455 1454 1452 1450 1449 1448 1444 1438 1433 1427 1421 1416 1411 1408 1405 1398 1392 1389 1384 1381 1379 1380 1380 1379 1378 1379 1379 1381 1383 1384 1389 1391 1393 1397 1402 1408 1412
1464 1466 1461 1460 1459 1459 1458 1456 1452 1449 1448 1446 1443 1441 1438 1434 1428 1424 1420 1416 1411 1405 1399 1394 1389 1385 1381 1381 1381 1378 1380 1380 1378 1378 1377 1380 1383 1387 1387 1388 1393 1398 1402 1407
1457 1462 1459 1460 1460 1459 1456 1454 1451 1448 1444 1441 1438 1434 1431 1429 1425 1422 1417 1413 1410 1405 1400 1393 1387 1385 1384 1383 1381 1379 1379 1378 1375 1372 1373 1377 1381 1381 1382 1385 1390 1394 1399 1404
1456 1460 1458 1459 1459 1458 1455 1452 1449 1446 1442 1437 1434 1430 1426 1422 1418 1416 1413 1409 1405 1401 1394 1390 1388 1386 1385 1382 1381 1379 1378 1376 1374 1371 1372 1373 1377 1378 1380 1384 1387 1391 1396 1399
1462 1466 1465 1461 1459 1457 1453 1450 1447 1444 1440 1437 1432 1428 1424 1419 1414 1410 1405 1402 1398 1394 1392 1392 1390 1387 1386 1385 1384 1382 1378 1375 1373 1371 1369 1369 1371 1374 1377 1380 1380 1384 1388 1393
1468 1464 1461 1460 1458 1456 1452 1448 1445 1443 1440 1437 1434 1429 1424 1419 1415 1411 1407 1403 1400 1396 1393 1390 1388 1389 1387 1386 1381 1376 1373 1372 1370 1369 1367 1368 1368 1372 1374 1376 1377 1380 1384 1388
1465 1461 1460 1459 1457 1454 1450 1447 1443 1440 1438 1436 1433 1429 1426 1421 1417 1413 1409 1406 1402 1400 1397 1395 1393 1389 1385 1380 1376 1372 1370 1367 1367 1364 1364 1364 1366 1368 1371 1372 1373 1376 1379 1383
1463 1462 1460 1458 1455 1452 1449 1445 1441 1438 1434 1432 1431 1428 1425 1422 1419 1416 1414 1410 1406 1403 1399 1395 1391 1386 1382 1376 1372 1370 1368 1368 1367 1364 1363 1362 1362 1363 1367 1368 1369 1372 1374 1378
1461 1459 1457 1455 1452 1449 1446 1443 1439 1437 1434 1430 1427 1425 1423 1421 1419 1416 1414 1411 1407 1404 1400 1394 1388 1384 1379 1374 1371 1369 1367 1366 1365 1363 1361 1361 1361 1361 1361 1363 1365 1369 1372 1375
1459 1455 1453 1451 1449 1446 1444 1441 1438 1436 1433 1430 1427 1424 1421 1419 1418 1416 1413 1411 1407 1404 1400 1394 1389 1383 1378 1374 1369 1367 1366 1367 1365 1364 1361 1358 1357 1358 1359 1360 1361 1366 1371 1373
1459 1457 1454 1451 1447 1444 1441 1439 1436 1434 1431 1429 1426 1422 1419 1416 1414 1412 1410 1408 1404 1401 1397 1392 1387 1383 1378 1373 1371 1368 1368 1366 1364 1358 1357 1355 1355 1356 1355 1358 1359 1361 1367 1371
1456 1453 1450 1448 1445 1442 1439 1436 1434 1432 1430 1427 1424 1421 1418 1414 1411 1409 1407 1404 1401 1398 1394 1390 1386 1382 1376 1370 1367 1364 1362 1360 1356 1354 1354 1351 1353 1354 1354 1356 1358 1360 1364 1369
1452 1449 1446 1444 1442 1439 1437 1434 1432 1430 1428 1426 1423 1419 1415 1412 1409 1406 1403 1401 1398 1396 1392 1388 1384 1379 1374 1370 1366 1363 1359 1355 1353 1351 1351 1351 1351 1350 1352 1358 1361 1362 1364 1366
1447 1444 1442 1439 1437 1435 1434 1431 1429 1427 1426 1424 1421 1417 1413 1410 1407 1404 1400 1397 1394 1391 1389 1386 1381 1376 1371 1366 1363 1360 1357 1355 1355 1355 1354 1353 1353 1355 1357 1362 1363 1364 1360 1360
1443 1440 1437 1435 1433 1431 1430 1429 1427 1425 1424 1422 1419 1416 1412 1408 1405 1403 1400 1397 1393 1390 1387 1383 1379 1376 1369 1365 1362 1360 1358 1357 1357 1358 1357 1356 1358 1361 1361 1361 1360 1360 1360 1367
1439 1437 1434 1432 1430 1428 1427 1426 1424 1423 1421 1420 1417 1414 1410 1407 1404 1401 1396 1394 1392 1390 1385 1382 1379 1374 1369 1366 1363 1360 1359 1358 1358 1357 1356 1356 1358 1359 1360 1360 1361 1364 1371 1376
1435 1433 1431 1429 1428 1426 1425 1423 1421 1420 1419 1417 1416 1413 1409 1405 1404 1401 1398 1395 1391 1389 1385 1381 1378 1374 1370 1366 1363 1361 1359 1358 1357 1357 1357 1359 1360 1362 1363 1364 1367 1373 1378 1379
1431 1429 1428 1426 1425 1424 1423 1421 1419 1418 1417 1415 1413 1411 1409 1406 1403 1400 1397 1394 1391 1388 1385 1381 1378 1375 1372 1368 1366 1364 1362 1361 1361 1362 1363 1364 1366 1367 1369 1372 1375 1378 1382 1385
1427 1426 1425 1424 1422 1421 1420 1419 1417 1416 1415 1413 1411 1409 1407 1404 1402 1400 1397 1394 1392 1389 1385 1383 1380 1377 1375 1373 1371 1368 1367 1367 1367 1367 1368 1370 1372 1374 1377 1379 1381 1384 1388 1391
1424 1424 1423 1422 1421 1419 1418 1417 1415 1414 1413 1412 1410 1408 1405 1403 1401 1399 1397 1394 1392 1389 1387 1385 1382 1380 1378 1377 1375 1374 1373 1372 1373 1374 1375 1376 1378 1380 1383 1385 1388 1390 1392 1395
Wind_Speed
2 9 4 10 14 17 17 13 6 3 4 12 14 14 11 16 20 21 25 27 28 27 23 19 13 10 7 9 14 18 23 29 23 30 28 28 28 27 24 27 22 21 22 25
1 9 3 4 15 9 11 12 7 8 1 13 17 14 12 16 20 22 23 24 26 25 23 22 19 14 10 8 10 11 15 20 28 26 30 29 29 26 27 25 23 20 24 24
3 4 7 2 7 5 4 6 4 6 7 14 15 14 12 18 20 21 23 24 25 25 24 23 20 17 13 7 7 7 10 13 18 24 30 31 31 28 30 25 30 24 23 26
3 4 3 1 2 3 7 5 6 7 11 12 13 5 16 27 25 25 25 26 25 25 24 20 18 15 11 6 4 2 6 9 11 14 26 33 34 33 34 32 29 27 23 24
2 1 3 2 3 4 2 2 7 8 13 17 25 5 4 31 30 27 26 23 22 22 20 17 17 16 13 8 3 2 2 5 7 10 15 25 31 34 34 33 31 28 26 26
3 2 2 3 4 6 3 2 10 11 11 14 20 6 5 31 29 26 22 21 20 19 16 15 15 16 14 11 7 5 4 5 7 8 11 16 26 34 34 34 35 32 32 30
0 2 3 4 11 4 1 3 14 11 11 13 6 8 24 26 24 21 22 22 21 19 19 19 19 18 17 15 12 9 7 7 8 10 10 12 16 25 31 33 31 29 27 27
2 3 3 13 2 5 4 11 13 12 13 14 14 17 18 21 22 22 22 22 22 21 21 20 19 19 18 16 13 11 9 7 8 10 12 13 14 16 22 26 26 27 27 26
4 3 3 5 9 5 7 12 12 15 17 17 19 19 19 21 22 20 19 20 20 21 21 20 20 19 19 17 16 13 11 7 7 10 11 12 15 17 18 20 22 24 24 23
3 3 5 2 1 13 10 15 16 15 17 17 20 21 22 21 21 21 20 21 21 20 21 21 21 20 18 18 17 15 13 10 6 7 10 12 14 15 17 19 21 22 24 25
1 6 7 5 13 17 14 16 16 16 17 18 19 21 22 24 23 21 21 23 21 21 22 23 20 20 18 18 18 16 13 10 7 5 9 11 12 14 17 19 20 21 22 23
2 8 5 10 14 10 17 17 16 17 19 16 16 19 21 21 22 22 24 23 23 22 23 22 20 19 18 16 16 16 13 10 7 4 6 9 11 13 14 16 18 19 20 20
4 14 12 7 10 15 15 16 15 16 13 15 14 15 17 19 19 19 19 21 21 21 22 22 21 19 17 15 15 16 16 12 9 6 5 8 10 12 14 15 15 16 17 17
12 13 4 12 13 15 15 14 13 13 14 13 13 12 13 14 13 14 17 20 21 20 19 19 19 20 19 16 15 15 16 14 12 9 6 6 9 11 13 13 14 14 15 16
16 10 9 13 12 12 13 14 14 16 18 17 14 13 12 11 11 13 15 17 18 20 19 20 19 22 21 17 16 15 15 14 11 8 7 7 8 10 12 12 13 14 13 13
17 12 13 13 15 14 14 14 15 17 17 18 17 15 12 10 10 11 13 15 18 20 21 20 19 22 21 19 16 14 12 11 11 7 7 8 9 10 11 12 12 12 14 14
17 20 20 19 18 16 15 14 14 15 15 16 17 15 13 11 10 11 13 15 16 16 17 19 19 22 23 17 14 15 13 10 7 6 8 9 8 9 10 11 11 12 13 14
10 12 13 14 15 15 15 13 13 13 14 14 16 15 13 13 14 15 16 16 17 16 18 18 21 22 19 15 12 12 10 8 7 7 6 5 6 8 8 9 11 11 11 13
13 14 14 12 12 12 12 12 12 11 12 13 15 15 14 13 14 15 16 15 16 19 22 21 22 20 18 16 14 10 9 7 5 4 3 1 3 5 6 7 8 11 13 16
15 13 13 12 10 10 11 10 10 10 11 13 15 14 14 13 15 16 16 14 14 17 23 20 20 20 20 16 11 8 8 8 8 7 5 3 1 3 6 8 10 11 15 15
17 17 16 13 11 9 9 10 10 10 10 12 15 15 15 14 14 15 17 17 16 18 21 18 20 22 22 15 11 8 7 7 7 5 5 2 3 7 10 13 15 16 14 15
18 18 17 13 12 11 9 8 7 8 9 11 13 14 14 14 14 15 15 18 17 21 21 17 21 22 17 13 9 6 5 5 4 3 2 2 5 9 12 14 15 14 16 21
17 17 15 12 11 11 9 7 4 8 9 11 12 14 15 15 14 18 21 18 17 21 17 15 21 18 14 11 8 7 5 4 4 4 3 4 5 7 10 13 15 18 24 28
17 15 11 9 9 9 8 5 6 9 10 9 8 11 14 15 13 15 16 17 16 17 15 14 18 14 12 11 10 9 9 7 6 6 7 7 9 12 14 19 24 26 26 26
16 14 8 9 10 9 8 8 9 10 10 7 9 8 11 12 13 16 16 16 16 15 14 12 11 12 11 12 11 10 10 10 9 9 11 12 14 16 18 20 21 22 22 22
14 8 7 8 11 8 5 9 12 13 12 12 6 10 11 12 11 12 14 14 14 14 12 12 12 12 11 12 12 12 13 13 13 14 14 16 18 19 21 21 22 22 21 21
12 7 6 8 5 6 3 10 13 13 9 11 13 13 12 12 11 10 12 13 13 13 12 11 10 10 10 10 11 12 13 15 15 16 17 18 18 18 19 19 19 19 18 17
Wind_Direction
159 161 106 48 19 19 33 7 52 25 59 1 347 338 0 359 357 360 4 4 4 5 9 8 13 34 52 105 145 180 194 203 193 204 214 219 222 222 209 208 216 220 224 220
264 200 224 73 32 21 35 8 32 359 13 355 333 335 3 4 1 1 358 358 357 359 0 358 4 6 8 78 118 144 168 183 198 201 207 211 214 214 207 208 217 215 222 226
268 346 185 317 3 11 110 30 329 16 318 331 340 345 42 12 4 355 355 352 353 354 356 356 359 354 359 49 100 127 152 167 182 196 203 213 221 227 223 215 215 221 236 224
271 14 50 249 43 83 115 73 20 347 340 335 334 5 44 15 359 352 350 349 352 354 356 357 357 352 360 38 50 117 153 167 171 179 194 208 222 229 225 217 212 224 229 236
70 103 270 14 30 350 8 94 22 355 349 345 343 289 281 359 357 349 349 351 350 354 349 354 355 359 16 32 25 316 213 192 187 187 190 204 212 218 217 218 210 214 221 235
32 71 210 218 299 314 224 158 8 5 356 349 350 11 327 342 349 349 354 356 354 352 357 358 1 10 16 26 24 349 294 253 218 205 193 195 207 217 213 219 213 216 222 224
3 195 291 285 308 330 79 316 339 343 341 344 344 310 310 334 347 353 354 359 360 2 2 5 6 9 14 15 11 353 320 268 239 223 212 204 202 212 217 213 220 216 216 220
96 53 306 345 359 89 268 320 324 332 332 326 322 327 331 340 348 356 360 4 6 5 8 9 7 8 10 8 1 347 330 291 251 233 222 216 205 209 210 213 214 220 227 222
151 213 228 43 95 26 334 328 328 328 333 332 331 335 339 344 351 356 1 2 4 3 4 10 12 7 3 358 350 351 337 310 258 231 226 224 217 214 210 209 215 217 217 223
185 53 316 136 34 356 342 337 333 330 329 336 329 336 337 345 351 354 358 1 1 1 3 5 9 6 359 351 346 344 338 327 295 246 227 225 224 219 214 215 218 222 222 222
63 27 36 137 352 343 332 335 336 338 337 334 332 334 336 341 349 351 355 358 358 4 5 4 3 1 356 349 340 340 337 332 319 275 231 226 225 216 215 217 217 219 221 222
355 1 305 292 332 342 336 336 337 340 334 337 335 332 335 341 347 351 355 355 1 4 4 3 1 357 351 345 336 332 338 340 330 287 240 227 227 227 222 222 222 224 225 225
338 323 313 335 343 340 338 334 338 329 337 336 341 336 337 341 351 353 355 0 0 360 359 357 357 353 347 343 338 339 337 335 333 316 264 231 229 227 229 229 227 228 228 230
352 352 340 340 328 335 341 339 338 343 349 351 348 345 342 345 353 1 2 360 358 354 352 351 353 356 351 345 343 341 336 332 324 319 295 251 232 231 229 229 227 225 228 230
348 352 323 321 327 336 345 347 348 351 350 351 357 357 354 353 357 356 350 348 351 352 348 347 349 352 350 348 347 340 332 327 316 312 298 273 253 237 232 228 225 225 222 221
337 344 340 343 342 345 349 352 349 347 348 348 349 354 357 357 359 357 358 355 353 354 351 348 353 348 350 347 341 336 327 321 316 304 303 286 263 242 231 224 222 221 216 211
347 346 343 340 340 341 345 347 345 342 342 345 346 344 344 343 344 349 352 351 353 351 349 354 357 354 347 340 335 336 328 309 298 279 285 277 262 240 227 217 212 215 215 208
330 332 330 324 328 331 338 344 346 345 344 341 343 341 338 337 339 342 344 345 342 347 355 356 1 345 341 342 338 337 325 312 291 290 285 254 239 224 215 211 204 204 206 202
336 329 332 327 329 331 335 340 345 346 345 341 342 344 343 336 334 336 336 342 344 351 354 358 354 347 351 350 342 337 338 343 350 350 325 266 215 208 205 203 205 199 204 211
326 326 328 321 323 332 333 336 340 343 346 346 345 343 346 347 345 344 343 350 354 358 353 351 350 353 356 353 349 345 352 2 5 3 355 353 314 181 186 200 199 199 196 195
329 327 328 325 322 328 332 334 336 341 340 343 350 353 351 349 348 351 352 352 356 358 346 354 356 0 347 348 353 355 7 13 5 351 355 15 174 183 187 191 188 189 186 182
329 328 327 324 326 328 333 335 333 336 336 340 347 353 357 358 353 357 3 355 357 359 345 354 5 355 348 353 354 2 13 18 12 22 59 124 165 177 177 176 175 174 167 168
322 323 323 322 328 331 336 342 339 345 341 343 347 352 358 2 2 356 354 360 358 354 348 357 1 355 359 6 16 29 38 53 63 69 82 114 142 157 157 157 157 157 156 153
318 321 316 315 324 324 332 340 353 344 340 341 342 354 355 357 7 359 357 353 359 349 355 4 2 2 13 27 36 50 61 65 82 101 113 126 135 139 138 137 140 144 146 144
317 320 311 315 321 320 334 335 334 337 339 334 343 349 359 0 357 354 352 356 359 360 3 11 21 23 28 41 47 59 73 81 88 109 122 129 132 135 135 139 141 142 141 141
317 321 318 322 327 322 326 341 330 332 338 348 348 348 353 355 354 357 359 0 2 6 10 19 29 38 45 55 61 73 80 85 102 110 118 124 129 133 136 138 138 139 141 142
317 307 308 309 296 338 321 342 329 328 331 358 346 337 339 346 351 352 359 2 7 11 15 23 33 47 52 61 73 80 89 98 102 110 118 123 128 130 133 135 137 139 141 143